Index of /20260428/WXO-DD/model_caps/3km/12/003
Name Last modified Size Description
Parent Directory -
20260428T12Z_MSC_CAPS_AbsoluteVorticity_IsbL-0250_RLatLon0.03_PT003H.grib2 2026-04-28 18:05 1.1M
20260428T12Z_MSC_CAPS_AbsoluteVorticity_IsbL-0500_RLatLon0.03_PT003H.grib2 2026-04-28 18:05 1.1M
20260428T12Z_MSC_CAPS_AbsoluteVorticity_IsbL-0700_RLatLon0.03_PT003H.grib2 2026-04-28 18:05 1.0M
20260428T12Z_MSC_CAPS_AbsoluteVorticity_IsbL-0850_RLatLon0.03_PT003H.grib2 2026-04-28 18:05 1.2M
20260428T12Z_MSC_CAPS_AbsoluteVorticity_IsbL-1000_RLatLon0.03_PT003H.grib2 2026-04-28 18:05 1.4M
20260428T12Z_MSC_CAPS_AirDensity_AGL-120m_RLatLon0.03_PT003H.grib2 2026-04-28 18:05 1.4M
20260428T12Z_MSC_CAPS_AirDensity_AGL-40m_RLatLon0.03_PT003H.grib2 2026-04-28 18:05 1.5M
20260428T12Z_MSC_CAPS_AirDensity_AGL-80m_RLatLon0.03_PT003H.grib2 2026-04-28 18:05 1.5M
20260428T12Z_MSC_CAPS_AirTemp_AGL-120m_RLatLon0.03_PT003H.grib2 2026-04-28 18:05 1.8M
20260428T12Z_MSC_CAPS_AirTemp_AGL-2m_RLatLon0.03_PT003H.grib2 2026-04-28 18:05 2.2M
20260428T12Z_MSC_CAPS_AirTemp_AGL-40m_RLatLon0.03_PT003H.grib2 2026-04-28 18:05 1.9M
20260428T12Z_MSC_CAPS_AirTemp_AGL-80m_RLatLon0.03_PT003H.grib2 2026-04-28 18:05 1.8M
20260428T12Z_MSC_CAPS_AirTemp_IsbL-0050_RLatLon0.03_PT003H.grib2 2026-04-28 18:05 702K
20260428T12Z_MSC_CAPS_AirTemp_IsbL-0100_RLatLon0.03_PT003H.grib2 2026-04-28 18:05 950K
20260428T12Z_MSC_CAPS_AirTemp_IsbL-0150_RLatLon0.03_PT003H.grib2 2026-04-28 18:05 743K
20260428T12Z_MSC_CAPS_AirTemp_IsbL-0175_RLatLon0.03_PT003H.grib2 2026-04-28 18:05 760K
20260428T12Z_MSC_CAPS_AirTemp_IsbL-0200_RLatLon0.03_PT003H.grib2 2026-04-28 18:05 776K
20260428T12Z_MSC_CAPS_AirTemp_IsbL-0225_RLatLon0.03_PT003H.grib2 2026-04-28 18:05 786K
20260428T12Z_MSC_CAPS_AirTemp_IsbL-0250_RLatLon0.03_PT003H.grib2 2026-04-28 18:05 786K
20260428T12Z_MSC_CAPS_AirTemp_IsbL-0275_RLatLon0.03_PT003H.grib2 2026-04-28 18:05 1.0M
20260428T12Z_MSC_CAPS_AirTemp_IsbL-0300_RLatLon0.03_PT003H.grib2 2026-04-28 18:05 1.0M
20260428T12Z_MSC_CAPS_AirTemp_IsbL-0350_RLatLon0.03_PT003H.grib2 2026-04-28 18:05 1.0M
20260428T12Z_MSC_CAPS_AirTemp_IsbL-0400_RLatLon0.03_PT003H.grib2 2026-04-28 18:05 749K
20260428T12Z_MSC_CAPS_AirTemp_IsbL-0450_RLatLon0.03_PT003H.grib2 2026-04-28 18:05 761K
20260428T12Z_MSC_CAPS_AirTemp_IsbL-0500_RLatLon0.03_PT003H.grib2 2026-04-28 18:05 774K
20260428T12Z_MSC_CAPS_AirTemp_IsbL-0550_RLatLon0.03_PT003H.grib2 2026-04-28 18:05 786K
20260428T12Z_MSC_CAPS_AirTemp_IsbL-0600_RLatLon0.03_PT003H.grib2 2026-04-28 18:05 799K
20260428T12Z_MSC_CAPS_AirTemp_IsbL-0650_RLatLon0.03_PT003H.grib2 2026-04-28 18:05 818K
20260428T12Z_MSC_CAPS_AirTemp_IsbL-0700_RLatLon0.03_PT003H.grib2 2026-04-28 18:05 1.0M
20260428T12Z_MSC_CAPS_AirTemp_IsbL-0750_RLatLon0.03_PT003H.grib2 2026-04-28 18:05 1.0M
20260428T12Z_MSC_CAPS_AirTemp_IsbL-0800_RLatLon0.03_PT003H.grib2 2026-04-28 18:05 1.0M
20260428T12Z_MSC_CAPS_AirTemp_IsbL-0850_RLatLon0.03_PT003H.grib2 2026-04-28 18:05 1.1M
20260428T12Z_MSC_CAPS_AirTemp_IsbL-0875_RLatLon0.03_PT003H.grib2 2026-04-28 18:05 1.1M
20260428T12Z_MSC_CAPS_AirTemp_IsbL-0900_RLatLon0.03_PT003H.grib2 2026-04-28 18:05 1.1M
20260428T12Z_MSC_CAPS_AirTemp_IsbL-0925_RLatLon0.03_PT003H.grib2 2026-04-28 18:05 1.1M
20260428T12Z_MSC_CAPS_AirTemp_IsbL-0950_RLatLon0.03_PT003H.grib2 2026-04-28 18:05 1.2M
20260428T12Z_MSC_CAPS_AirTemp_IsbL-0970_RLatLon0.03_PT003H.grib2 2026-04-28 18:05 1.2M
20260428T12Z_MSC_CAPS_AirTemp_IsbL-0985_RLatLon0.03_PT003H.grib2 2026-04-28 18:05 1.1M
20260428T12Z_MSC_CAPS_AirTemp_IsbL-1000_RLatLon0.03_PT003H.grib2 2026-04-28 18:05 1.0M
20260428T12Z_MSC_CAPS_AirTemp_IsbL-1015_RLatLon0.03_PT003H.grib2 2026-04-28 18:05 1.2M
20260428T12Z_MSC_CAPS_Albedo_Sfc_RLatLon0.03_PT003H.grib2 2026-04-28 18:05 2.7M
20260428T12Z_MSC_CAPS_CAPE_Sfc_RLatLon0.03_PT003H.grib2 2026-04-28 18:05 59K
20260428T12Z_MSC_CAPS_CloudWater_EAtm_RLatLon0.03_PT003H.grib2 2026-04-28 18:05 1.3M
20260428T12Z_MSC_CAPS_ConvectivePrecip-Accum_Sfc_RLatLon0.03_PT003H.grib2 2026-04-28 18:05 1.4M
20260428T12Z_MSC_CAPS_DewPointDepression_AGL-120m_RLatLon0.03_PT003H.grib2 2026-04-28 18:05 2.0M
20260428T12Z_MSC_CAPS_DewPointDepression_AGL-2m_RLatLon0.03_PT003H.grib2 2026-04-28 18:05 2.1M
20260428T12Z_MSC_CAPS_DewPointDepression_AGL-40m_RLatLon0.03_PT003H.grib2 2026-04-28 18:05 2.1M
20260428T12Z_MSC_CAPS_DewPointDepression_AGL-80m_RLatLon0.03_PT003H.grib2 2026-04-28 18:05 2.0M
20260428T12Z_MSC_CAPS_DewPointDepression_IsbL-0050_RLatLon0.03_PT003H.grib2 2026-04-28 18:05 3.4K
20260428T12Z_MSC_CAPS_DewPointDepression_IsbL-0100_RLatLon0.03_PT003H.grib2 2026-04-28 18:05 124K
20260428T12Z_MSC_CAPS_DewPointDepression_IsbL-0150_RLatLon0.03_PT003H.grib2 2026-04-28 18:05 85K
20260428T12Z_MSC_CAPS_DewPointDepression_IsbL-0175_RLatLon0.03_PT003H.grib2 2026-04-28 18:05 173K
20260428T12Z_MSC_CAPS_DewPointDepression_IsbL-0200_RLatLon0.03_PT003H.grib2 2026-04-28 18:05 348K
20260428T12Z_MSC_CAPS_DewPointDepression_IsbL-0225_RLatLon0.03_PT003H.grib2 2026-04-28 18:05 612K
20260428T12Z_MSC_CAPS_DewPointDepression_IsbL-0250_RLatLon0.03_PT003H.grib2 2026-04-28 18:05 837K
20260428T12Z_MSC_CAPS_DewPointDepression_IsbL-0275_RLatLon0.03_PT003H.grib2 2026-04-28 18:05 942K
20260428T12Z_MSC_CAPS_DewPointDepression_IsbL-0300_RLatLon0.03_PT003H.grib2 2026-04-28 18:05 1.0M
20260428T12Z_MSC_CAPS_DewPointDepression_IsbL-0350_RLatLon0.03_PT003H.grib2 2026-04-28 18:05 1.0M
20260428T12Z_MSC_CAPS_DewPointDepression_IsbL-0400_RLatLon0.03_PT003H.grib2 2026-04-28 18:05 1.0M
20260428T12Z_MSC_CAPS_DewPointDepression_IsbL-0450_RLatLon0.03_PT003H.grib2 2026-04-28 18:05 1.1M
20260428T12Z_MSC_CAPS_DewPointDepression_IsbL-0500_RLatLon0.03_PT003H.grib2 2026-04-28 18:05 1.1M
20260428T12Z_MSC_CAPS_DewPointDepression_IsbL-0550_RLatLon0.03_PT003H.grib2 2026-04-28 18:05 1.1M
20260428T12Z_MSC_CAPS_DewPointDepression_IsbL-0600_RLatLon0.03_PT003H.grib2 2026-04-28 18:05 1.1M
20260428T12Z_MSC_CAPS_DewPointDepression_IsbL-0650_RLatLon0.03_PT003H.grib2 2026-04-28 18:05 1.1M
20260428T12Z_MSC_CAPS_DewPointDepression_IsbL-0700_RLatLon0.03_PT003H.grib2 2026-04-28 18:05 1.2M
20260428T12Z_MSC_CAPS_DewPointDepression_IsbL-0750_RLatLon0.03_PT003H.grib2 2026-04-28 18:05 1.2M
20260428T12Z_MSC_CAPS_DewPointDepression_IsbL-0800_RLatLon0.03_PT003H.grib2 2026-04-28 18:05 1.2M
20260428T12Z_MSC_CAPS_DewPointDepression_IsbL-0850_RLatLon0.03_PT003H.grib2 2026-04-28 18:05 1.3M
20260428T12Z_MSC_CAPS_DewPointDepression_IsbL-0875_RLatLon0.03_PT003H.grib2 2026-04-28 18:05 1.3M
20260428T12Z_MSC_CAPS_DewPointDepression_IsbL-0900_RLatLon0.03_PT003H.grib2 2026-04-28 18:05 1.3M
20260428T12Z_MSC_CAPS_DewPointDepression_IsbL-0925_RLatLon0.03_PT003H.grib2 2026-04-28 18:05 1.3M
20260428T12Z_MSC_CAPS_DewPointDepression_IsbL-0950_RLatLon0.03_PT003H.grib2 2026-04-28 18:05 1.3M
20260428T12Z_MSC_CAPS_DewPointDepression_IsbL-0970_RLatLon0.03_PT003H.grib2 2026-04-28 18:05 1.3M
20260428T12Z_MSC_CAPS_DewPointDepression_IsbL-0985_RLatLon0.03_PT003H.grib2 2026-04-28 18:05 1.3M
20260428T12Z_MSC_CAPS_DewPointDepression_IsbL-1000_RLatLon0.03_PT003H.grib2 2026-04-28 18:05 1.3M
20260428T12Z_MSC_CAPS_DewPointDepression_IsbL-1015_RLatLon0.03_PT003H.grib2 2026-04-28 18:05 1.3M
20260428T12Z_MSC_CAPS_DewPoint_AGL-120m_RLatLon0.03_PT003H.grib2 2026-04-28 18:05 3.6M
20260428T12Z_MSC_CAPS_DewPoint_AGL-2m_RLatLon0.03_PT003H.grib2 2026-04-28 18:05 2.2M
20260428T12Z_MSC_CAPS_DewPoint_AGL-40m_RLatLon0.03_PT003H.grib2 2026-04-28 18:05 3.7M
20260428T12Z_MSC_CAPS_DewPoint_AGL-80m_RLatLon0.03_PT003H.grib2 2026-04-28 18:05 3.6M
20260428T12Z_MSC_CAPS_DownwardLongwaveRadiationFlux-Accum_Sfc_RLatLon0.03_PT003H.grib2 2026-04-28 18:05 2.6M
20260428T12Z_MSC_CAPS_DownwardShortwaveRadiationFlux-Accum_NTAtm_RLatLon0.03_PT003H.grib2 2026-04-28 18:05 415K
20260428T12Z_MSC_CAPS_DownwardShortwaveRadiationFlux-Accum_Sfc_RLatLon0.03_PT003H.grib2 2026-04-28 18:05 1.8M
20260428T12Z_MSC_CAPS_FreezingRain-Accum_Sfc_RLatLon0.03_PT003H.grib2 2026-04-28 18:05 212K
20260428T12Z_MSC_CAPS_GeopotentialHeight_IsbL-0050_RLatLon0.03_PT003H.grib2 2026-04-28 18:05 647K
20260428T12Z_MSC_CAPS_GeopotentialHeight_IsbL-0100_RLatLon0.03_PT003H.grib2 2026-04-28 18:05 771K
20260428T12Z_MSC_CAPS_GeopotentialHeight_IsbL-0150_RLatLon0.03_PT003H.grib2 2026-04-28 18:05 720K
20260428T12Z_MSC_CAPS_GeopotentialHeight_IsbL-0175_RLatLon0.03_PT003H.grib2 2026-04-28 18:05 729K
20260428T12Z_MSC_CAPS_GeopotentialHeight_IsbL-0200_RLatLon0.03_PT003H.grib2 2026-04-28 18:05 742K
20260428T12Z_MSC_CAPS_GeopotentialHeight_IsbL-0225_RLatLon0.03_PT003H.grib2 2026-04-28 18:05 753K
20260428T12Z_MSC_CAPS_GeopotentialHeight_IsbL-0250_RLatLon0.03_PT003H.grib2 2026-04-28 18:05 762K
20260428T12Z_MSC_CAPS_GeopotentialHeight_IsbL-0275_RLatLon0.03_PT003H.grib2 2026-04-28 18:05 773K
20260428T12Z_MSC_CAPS_GeopotentialHeight_IsbL-0300_RLatLon0.03_PT003H.grib2 2026-04-28 18:05 779K
20260428T12Z_MSC_CAPS_GeopotentialHeight_IsbL-0350_RLatLon0.03_PT003H.grib2 2026-04-28 18:05 778K
20260428T12Z_MSC_CAPS_GeopotentialHeight_IsbL-0400_RLatLon0.03_PT003H.grib2 2026-04-28 18:05 772K
20260428T12Z_MSC_CAPS_GeopotentialHeight_IsbL-0450_RLatLon0.03_PT003H.grib2 2026-04-28 18:05 763K
20260428T12Z_MSC_CAPS_GeopotentialHeight_IsbL-0500_RLatLon0.03_PT003H.grib2 2026-04-28 18:05 758K
20260428T12Z_MSC_CAPS_GeopotentialHeight_IsbL-0550_RLatLon0.03_PT003H.grib2 2026-04-28 18:05 744K
20260428T12Z_MSC_CAPS_GeopotentialHeight_IsbL-0600_RLatLon0.03_PT003H.grib2 2026-04-28 18:05 629K
20260428T12Z_MSC_CAPS_GeopotentialHeight_IsbL-0650_RLatLon0.03_PT003H.grib2 2026-04-28 18:05 630K
20260428T12Z_MSC_CAPS_GeopotentialHeight_IsbL-0700_RLatLon0.03_PT003H.grib2 2026-04-28 18:05 627K
20260428T12Z_MSC_CAPS_GeopotentialHeight_IsbL-0750_RLatLon0.03_PT003H.grib2 2026-04-28 18:05 801K
20260428T12Z_MSC_CAPS_GeopotentialHeight_IsbL-0800_RLatLon0.03_PT003H.grib2 2026-04-28 18:05 805K
20260428T12Z_MSC_CAPS_GeopotentialHeight_IsbL-0850_RLatLon0.03_PT003H.grib2 2026-04-28 18:05 816K
20260428T12Z_MSC_CAPS_GeopotentialHeight_IsbL-0875_RLatLon0.03_PT003H.grib2 2026-04-28 18:05 822K
20260428T12Z_MSC_CAPS_GeopotentialHeight_IsbL-0900_RLatLon0.03_PT003H.grib2 2026-04-28 18:05 826K
20260428T12Z_MSC_CAPS_GeopotentialHeight_IsbL-0925_RLatLon0.03_PT003H.grib2 2026-04-28 18:05 916K
20260428T12Z_MSC_CAPS_GeopotentialHeight_IsbL-0950_RLatLon0.03_PT003H.grib2 2026-04-28 18:05 933K
20260428T12Z_MSC_CAPS_GeopotentialHeight_IsbL-0970_RLatLon0.03_PT003H.grib2 2026-04-28 18:05 945K
20260428T12Z_MSC_CAPS_GeopotentialHeight_IsbL-0985_RLatLon0.03_PT003H.grib2 2026-04-28 18:05 955K
20260428T12Z_MSC_CAPS_GeopotentialHeight_IsbL-1000_RLatLon0.03_PT003H.grib2 2026-04-28 18:05 964K
20260428T12Z_MSC_CAPS_GeopotentialHeight_IsbL-1015_RLatLon0.03_PT003H.grib2 2026-04-28 18:05 1.0M
20260428T12Z_MSC_CAPS_GeopotentialHeight_Sfc_RLatLon0.03_PT003H.grib2 2026-04-28 18:05 1.0M
20260428T12Z_MSC_CAPS_IcePellets-Accum_Sfc_RLatLon0.03_PT003H.grib2 2026-04-28 18:05 6.1K
20260428T12Z_MSC_CAPS_LatentHeatNetFlux_Sfc_RLatLon0.03_PT003H.grib2 2026-04-28 18:05 1.8M
20260428T12Z_MSC_CAPS_LiftedIndex-MU-VT_IsbL-0500_RLatLon0.03_PT003H.grib2 2026-04-28 18:05 3.3M
20260428T12Z_MSC_CAPS_MixedLayerThickness_Sfc_RLatLon0.03_PT003H.nc 2026-04-28 18:11 17M
20260428T12Z_MSC_CAPS_NetLongwaveRadiationFlux-Accum_Sfc_RLatLon0.03_PT003H.grib2 2026-04-28 18:05 3.0M
20260428T12Z_MSC_CAPS_NetShortwaveRadiationFlux-Accum_Sfc_RLatLon0.03_PT003H.grib2 2026-04-28 18:05 1.9M
20260428T12Z_MSC_CAPS_PlanetaryBoundaryLayerHeight_Sfc_RLatLon0.03_PT003H.grib2 2026-04-28 18:05 2.7M
20260428T12Z_MSC_CAPS_Precip-Accum_Sfc_RLatLon0.03_PT003H.grib2 2026-04-28 18:05 2.1M
20260428T12Z_MSC_CAPS_PrecipRate_Sfc_RLatLon0.03_PT003H.grib2 2026-04-28 18:05 288K
20260428T12Z_MSC_CAPS_PrecipType-Instant_Sfc_RLatLon0.03_PT003H.grib2 2026-04-28 18:05 1.2M
20260428T12Z_MSC_CAPS_Pressure_MSL_RLatLon0.03_PT003H.grib2 2026-04-28 18:05 771K
20260428T12Z_MSC_CAPS_Pressure_Sfc_RLatLon0.03_PT003H.grib2 2026-04-28 18:05 1.2M
20260428T12Z_MSC_CAPS_RadiativeTemp_Sfc_RLatLon0.03_PT003H.grib2 2026-04-28 18:05 2.1M
20260428T12Z_MSC_CAPS_Rain-Accum_Sfc_RLatLon0.03_PT003H.grib2 2026-04-28 18:05 737K
20260428T12Z_MSC_CAPS_RelativeHumidity_AGL-120m_RLatLon0.03_PT003H.grib2 2026-04-28 18:05 2.7M
20260428T12Z_MSC_CAPS_RelativeHumidity_AGL-2m_RLatLon0.03_PT003H.grib2 2026-04-28 18:05 2.9M
20260428T12Z_MSC_CAPS_RelativeHumidity_AGL-40m_RLatLon0.03_PT003H.grib2 2026-04-28 18:05 2.8M
20260428T12Z_MSC_CAPS_RelativeHumidity_AGL-80m_RLatLon0.03_PT003H.grib2 2026-04-28 18:05 2.7M
20260428T12Z_MSC_CAPS_RelativeHumidity_IsbL-0050_RLatLon0.03_PT003H.grib2 2026-04-28 18:05 972K
20260428T12Z_MSC_CAPS_RelativeHumidity_IsbL-0100_RLatLon0.03_PT003H.grib2 2026-04-28 18:05 878K
20260428T12Z_MSC_CAPS_RelativeHumidity_IsbL-0150_RLatLon0.03_PT003H.grib2 2026-04-28 18:05 595K
20260428T12Z_MSC_CAPS_RelativeHumidity_IsbL-0175_RLatLon0.03_PT003H.grib2 2026-04-28 18:05 465K
20260428T12Z_MSC_CAPS_RelativeHumidity_IsbL-0200_RLatLon0.03_PT003H.grib2 2026-04-28 18:05 616K
20260428T12Z_MSC_CAPS_RelativeHumidity_IsbL-0225_RLatLon0.03_PT003H.grib2 2026-04-28 18:05 830K
20260428T12Z_MSC_CAPS_RelativeHumidity_IsbL-0250_RLatLon0.03_PT003H.grib2 2026-04-28 18:05 1.0M
20260428T12Z_MSC_CAPS_RelativeHumidity_IsbL-0275_RLatLon0.03_PT003H.grib2 2026-04-28 18:05 1.4M
20260428T12Z_MSC_CAPS_RelativeHumidity_IsbL-0300_RLatLon0.03_PT003H.grib2 2026-04-28 18:05 1.5M
20260428T12Z_MSC_CAPS_RelativeHumidity_IsbL-0350_RLatLon0.03_PT003H.grib2 2026-04-28 18:05 1.7M
20260428T12Z_MSC_CAPS_RelativeHumidity_IsbL-0400_RLatLon0.03_PT003H.grib2 2026-04-28 18:05 1.8M
20260428T12Z_MSC_CAPS_RelativeHumidity_IsbL-0450_RLatLon0.03_PT003H.grib2 2026-04-28 18:05 1.9M
20260428T12Z_MSC_CAPS_RelativeHumidity_IsbL-0500_RLatLon0.03_PT003H.grib2 2026-04-28 18:05 1.8M
20260428T12Z_MSC_CAPS_RelativeHumidity_IsbL-0550_RLatLon0.03_PT003H.grib2 2026-04-28 18:05 2.0M
20260428T12Z_MSC_CAPS_RelativeHumidity_IsbL-0600_RLatLon0.03_PT003H.grib2 2026-04-28 18:05 1.9M
20260428T12Z_MSC_CAPS_RelativeHumidity_IsbL-0650_RLatLon0.03_PT003H.grib2 2026-04-28 18:05 1.9M
20260428T12Z_MSC_CAPS_RelativeHumidity_IsbL-0700_RLatLon0.03_PT003H.grib2 2026-04-28 18:05 2.1M
20260428T12Z_MSC_CAPS_RelativeHumidity_IsbL-0750_RLatLon0.03_PT003H.grib2 2026-04-28 18:05 2.2M
20260428T12Z_MSC_CAPS_RelativeHumidity_IsbL-0800_RLatLon0.03_PT003H.grib2 2026-04-28 18:05 2.2M
20260428T12Z_MSC_CAPS_RelativeHumidity_IsbL-0850_RLatLon0.03_PT003H.grib2 2026-04-28 18:05 2.3M
20260428T12Z_MSC_CAPS_RelativeHumidity_IsbL-0875_RLatLon0.03_PT003H.grib2 2026-04-28 18:05 2.4M
20260428T12Z_MSC_CAPS_RelativeHumidity_IsbL-0900_RLatLon0.03_PT003H.grib2 2026-04-28 18:05 2.4M
20260428T12Z_MSC_CAPS_RelativeHumidity_IsbL-0925_RLatLon0.03_PT003H.grib2 2026-04-28 18:05 2.5M
20260428T12Z_MSC_CAPS_RelativeHumidity_IsbL-0950_RLatLon0.03_PT003H.grib2 2026-04-28 18:05 2.6M
20260428T12Z_MSC_CAPS_RelativeHumidity_IsbL-0970_RLatLon0.03_PT003H.grib2 2026-04-28 18:05 2.7M
20260428T12Z_MSC_CAPS_RelativeHumidity_IsbL-0985_RLatLon0.03_PT003H.grib2 2026-04-28 18:05 2.8M
20260428T12Z_MSC_CAPS_RelativeHumidity_IsbL-1000_RLatLon0.03_PT003H.grib2 2026-04-28 18:05 2.8M
20260428T12Z_MSC_CAPS_RelativeHumidity_IsbL-1015_RLatLon0.03_PT003H.grib2 2026-04-28 18:05 2.9M
20260428T12Z_MSC_CAPS_Runoff-Accum_Sfc_RLatLon0.03_PT003H.grib2 2026-04-28 18:05 150K
20260428T12Z_MSC_CAPS_SeaIceAreaFraction_Sfc_RLatLon0.03_PT003H.nc 2026-04-28 18:11 15M
20260428T12Z_MSC_CAPS_SeaIceCompressiveStrength_Sfc_RLatLon0.03_PT003H.nc 2026-04-28 18:11 15M
20260428T12Z_MSC_CAPS_SeaIceDivergence_Sfc_RLatLon0.03_PT003H.nc 2026-04-28 18:11 15M
20260428T12Z_MSC_CAPS_SeaIceInternalPressure_Sfc_RLatLon0.03_PT003H.nc 2026-04-28 18:11 15M
20260428T12Z_MSC_CAPS_SeaIceShear_Sfc_RLatLon0.03_PT003H.nc 2026-04-28 18:11 14M
20260428T12Z_MSC_CAPS_SeaIceSnowTemp_Sfc_RLatLon0.03_PT003H.nc 2026-04-28 18:11 15M
20260428T12Z_MSC_CAPS_SeaIceSnowVolume_Sfc_RLatLon0.03_PT003H.nc 2026-04-28 18:11 15M
20260428T12Z_MSC_CAPS_SeaIceVelocityX_Sfc_RLatLon0.03_PT003H.nc 2026-04-28 18:11 15M
20260428T12Z_MSC_CAPS_SeaIceVelocityY_Sfc_RLatLon0.03_PT003H.nc 2026-04-28 18:11 15M
20260428T12Z_MSC_CAPS_SeaIceVolume_Sfc_RLatLon0.03_PT003H.nc 2026-04-28 18:11 15M
20260428T12Z_MSC_CAPS_SeaSurfaceHeight_Sfc_RLatLon0.03_PT003H.nc 2026-04-28 18:11 16M
20260428T12Z_MSC_CAPS_SeaWaterSalinity_DBS-0.5m_RLatLon0.03_PT003H.nc 2026-04-28 18:11 16M
20260428T12Z_MSC_CAPS_SeaWaterSalinity_DBS-all_RLatLon0.03_PT003H.nc 2026-04-28 18:11 107M
20260428T12Z_MSC_CAPS_SeaWaterTemp_DBS-0.5m_RLatLon0.03_PT003H.nc 2026-04-28 18:11 14M
20260428T12Z_MSC_CAPS_SeaWaterTemp_DBS-all_RLatLon0.03_PT003H.nc 2026-04-28 18:11 87M
20260428T12Z_MSC_CAPS_SeaWaterVelocityX_DBS-0.5m_RLatLon0.03_PT003H.nc 2026-04-28 18:11 17M
20260428T12Z_MSC_CAPS_SeaWaterVelocityX_DBS-all_RLatLon0.03_PT003H.nc 2026-04-28 18:11 200M
20260428T12Z_MSC_CAPS_SeaWaterVelocityY_DBS-0.5m_RLatLon0.03_PT003H.nc 2026-04-28 18:11 17M
20260428T12Z_MSC_CAPS_SeaWaterVelocityY_DBS-all_RLatLon0.03_PT003H.nc 2026-04-28 18:11 209M
20260428T12Z_MSC_CAPS_SensibleHeatNetFlux_Sfc_RLatLon0.03_PT003H.grib2 2026-04-28 18:05 2.1M
20260428T12Z_MSC_CAPS_ShowalterIndex_IsbL-0500_RLatLon0.03_PT003H.grib2 2026-04-28 18:05 4.3M
20260428T12Z_MSC_CAPS_Snow-Accum_Sfc_RLatLon0.03_PT003H.grib2 2026-04-28 18:05 1.5M
20260428T12Z_MSC_CAPS_SnowDensity_Sfc_RLatLon0.03_PT003H.grib2 2026-04-28 18:05 1.2M
20260428T12Z_MSC_CAPS_SnowDepthWaterEquivalent_Sfc_RLatLon0.03_PT003H.grib2 2026-04-28 18:05 701K
20260428T12Z_MSC_CAPS_SnowDepth_Sfc_RLatLon0.03_PT003H.grib2 2026-04-28 18:05 1.2M
20260428T12Z_MSC_CAPS_SoilTemp_DBS-0to10cm_RLatLon0.03_PT003H.grib2 2026-04-28 18:05 1.2M
20260428T12Z_MSC_CAPS_SoilTemp_Sfc_RLatLon0.03_PT003H.grib2 2026-04-28 18:05 1.9M
20260428T12Z_MSC_CAPS_SoilVolumetricIceContent_Sfc_RLatLon0.03_PT003H.grib2 2026-04-28 18:05 1.4M
20260428T12Z_MSC_CAPS_SoilVolumetricWaterContent_DBS-0to10cm_RLatLon0.03_PT003H.grib2 2026-04-28 18:05 1.1M
20260428T12Z_MSC_CAPS_SoilVolumetricWaterContent_DBS-0to1cm_RLatLon0.03_PT003H.grib2 2026-04-28 18:05 1.6M
20260428T12Z_MSC_CAPS_SpecificHumidity_AGL-120m_RLatLon0.03_PT003H.grib2 2026-04-28 18:05 1.6M
20260428T12Z_MSC_CAPS_SpecificHumidity_AGL-2m_RLatLon0.03_PT003H.grib2 2026-04-28 18:05 2.0M
20260428T12Z_MSC_CAPS_SpecificHumidity_AGL-40m_RLatLon0.03_PT003H.grib2 2026-04-28 18:05 1.8M
20260428T12Z_MSC_CAPS_SpecificHumidity_AGL-80m_RLatLon0.03_PT003H.grib2 2026-04-28 18:05 1.7M
20260428T12Z_MSC_CAPS_SpecificHumidity_IsbL-0050_RLatLon0.03_PT003H.grib2 2026-04-28 18:05 857K
20260428T12Z_MSC_CAPS_SpecificHumidity_IsbL-0100_RLatLon0.03_PT003H.grib2 2026-04-28 18:05 1.0M
20260428T12Z_MSC_CAPS_SpecificHumidity_IsbL-0150_RLatLon0.03_PT003H.grib2 2026-04-28 18:05 970K
20260428T12Z_MSC_CAPS_SpecificHumidity_IsbL-0175_RLatLon0.03_PT003H.grib2 2026-04-28 18:05 945K
20260428T12Z_MSC_CAPS_SpecificHumidity_IsbL-0200_RLatLon0.03_PT003H.grib2 2026-04-28 18:05 814K
20260428T12Z_MSC_CAPS_SpecificHumidity_IsbL-0225_RLatLon0.03_PT003H.grib2 2026-04-28 18:05 1.0M
20260428T12Z_MSC_CAPS_SpecificHumidity_IsbL-0250_RLatLon0.03_PT003H.grib2 2026-04-28 18:05 1.0M
20260428T12Z_MSC_CAPS_SpecificHumidity_IsbL-0275_RLatLon0.03_PT003H.grib2 2026-04-28 18:05 1.0M
20260428T12Z_MSC_CAPS_SpecificHumidity_IsbL-0300_RLatLon0.03_PT003H.grib2 2026-04-28 18:05 909K
20260428T12Z_MSC_CAPS_SpecificHumidity_IsbL-0350_RLatLon0.03_PT003H.grib2 2026-04-28 18:05 1.1M
20260428T12Z_MSC_CAPS_SpecificHumidity_IsbL-0400_RLatLon0.03_PT003H.grib2 2026-04-28 18:05 1.1M
20260428T12Z_MSC_CAPS_SpecificHumidity_IsbL-0450_RLatLon0.03_PT003H.grib2 2026-04-28 18:05 1.0M
20260428T12Z_MSC_CAPS_SpecificHumidity_IsbL-0500_RLatLon0.03_PT003H.grib2 2026-04-28 18:05 1.1M
20260428T12Z_MSC_CAPS_SpecificHumidity_IsbL-0550_RLatLon0.03_PT003H.grib2 2026-04-28 18:05 1.1M
20260428T12Z_MSC_CAPS_SpecificHumidity_IsbL-0600_RLatLon0.03_PT003H.grib2 2026-04-28 18:05 1.2M
20260428T12Z_MSC_CAPS_SpecificHumidity_IsbL-0650_RLatLon0.03_PT003H.grib2 2026-04-28 18:05 1.3M
20260428T12Z_MSC_CAPS_SpecificHumidity_IsbL-0700_RLatLon0.03_PT003H.grib2 2026-04-28 18:05 1.4M
20260428T12Z_MSC_CAPS_SpecificHumidity_IsbL-0750_RLatLon0.03_PT003H.grib2 2026-04-28 18:05 1.6M
20260428T12Z_MSC_CAPS_SpecificHumidity_IsbL-0800_RLatLon0.03_PT003H.grib2 2026-04-28 18:05 1.3M
20260428T12Z_MSC_CAPS_SpecificHumidity_IsbL-0850_RLatLon0.03_PT003H.grib2 2026-04-28 18:05 1.5M
20260428T12Z_MSC_CAPS_SpecificHumidity_IsbL-0875_RLatLon0.03_PT003H.grib2 2026-04-28 18:05 1.5M
20260428T12Z_MSC_CAPS_SpecificHumidity_IsbL-0900_RLatLon0.03_PT003H.grib2 2026-04-28 18:05 1.6M
20260428T12Z_MSC_CAPS_SpecificHumidity_IsbL-0925_RLatLon0.03_PT003H.grib2 2026-04-28 18:05 1.7M
20260428T12Z_MSC_CAPS_SpecificHumidity_IsbL-0950_RLatLon0.03_PT003H.grib2 2026-04-28 18:05 1.8M
20260428T12Z_MSC_CAPS_SpecificHumidity_IsbL-0970_RLatLon0.03_PT003H.grib2 2026-04-28 18:05 1.8M
20260428T12Z_MSC_CAPS_SpecificHumidity_IsbL-0985_RLatLon0.03_PT003H.grib2 2026-04-28 18:05 1.9M
20260428T12Z_MSC_CAPS_SpecificHumidity_IsbL-1000_RLatLon0.03_PT003H.grib2 2026-04-28 18:05 1.9M
20260428T12Z_MSC_CAPS_SpecificHumidity_IsbL-1015_RLatLon0.03_PT003H.grib2 2026-04-28 18:05 2.0M
20260428T12Z_MSC_CAPS_SpecificHumidity_Sfc_RLatLon0.03_PT003H.grib2 2026-04-28 18:05 2.1M
20260428T12Z_MSC_CAPS_StormRelativeHelicity_Sfc_RLatLon0.03_PT003H.grib2 2026-04-28 18:05 3.2M
20260428T12Z_MSC_CAPS_Thickness_IsbL-1000to0500_RLatLon0.03_PT003H.grib2 2026-04-28 18:05 429K
20260428T12Z_MSC_CAPS_TotalCloudCover_Sfc_RLatLon0.03_PT003H.grib2 2026-04-28 18:05 3.4M
20260428T12Z_MSC_CAPS_TurboclineDepth_Sfc_RLatLon0.03_PT003H.nc 2026-04-28 18:11 16M
20260428T12Z_MSC_CAPS_UpwardLongwaveRadiationFlux_NTAtm_RLatLon0.03_PT003H.grib2 2026-04-28 18:05 2.8M
20260428T12Z_MSC_CAPS_UpwardShortwaveRadiationFlux_NTAtm_RLatLon0.03_PT003H.grib2 2026-04-28 18:05 2.4M
20260428T12Z_MSC_CAPS_VerticalVelocity_IsbL-0250_RLatLon0.03_PT003H.grib2 2026-04-28 18:05 870K
20260428T12Z_MSC_CAPS_VerticalVelocity_IsbL-0500_RLatLon0.03_PT003H.grib2 2026-04-28 18:05 846K
20260428T12Z_MSC_CAPS_VerticalVelocity_IsbL-0700_RLatLon0.03_PT003H.grib2 2026-04-28 18:05 906K
20260428T12Z_MSC_CAPS_VerticalVelocity_IsbL-0850_RLatLon0.03_PT003H.grib2 2026-04-28 18:05 1.1M
20260428T12Z_MSC_CAPS_VerticalVelocity_IsbL-1000_RLatLon0.03_PT003H.grib2 2026-04-28 18:05 1.1M
20260428T12Z_MSC_CAPS_WindDir_AGL-10m_RLatLon0.03_PT003H.grib2 2026-04-28 18:05 2.5M
20260428T12Z_MSC_CAPS_WindDir_AGL-120m_RLatLon0.03_PT003H.grib2 2026-04-28 18:05 1.3M
20260428T12Z_MSC_CAPS_WindDir_AGL-40m_RLatLon0.03_PT003H.grib2 2026-04-28 18:05 1.5M
20260428T12Z_MSC_CAPS_WindDir_AGL-80m_RLatLon0.03_PT003H.grib2 2026-04-28 18:05 1.3M
20260428T12Z_MSC_CAPS_WindDir_IsbL-0050_RLatLon0.03_PT003H.grib2 2026-04-28 18:05 1.1M
20260428T12Z_MSC_CAPS_WindDir_IsbL-0100_RLatLon0.03_PT003H.grib2 2026-04-28 18:05 1.0M
20260428T12Z_MSC_CAPS_WindDir_IsbL-0150_RLatLon0.03_PT003H.grib2 2026-04-28 18:05 1.0M
20260428T12Z_MSC_CAPS_WindDir_IsbL-0175_RLatLon0.03_PT003H.grib2 2026-04-28 18:05 1.0M
20260428T12Z_MSC_CAPS_WindDir_IsbL-0200_RLatLon0.03_PT003H.grib2 2026-04-28 18:05 1.1M
20260428T12Z_MSC_CAPS_WindDir_IsbL-0225_RLatLon0.03_PT003H.grib2 2026-04-28 18:05 1.1M
20260428T12Z_MSC_CAPS_WindDir_IsbL-0250_RLatLon0.03_PT003H.grib2 2026-04-28 18:05 1.1M
20260428T12Z_MSC_CAPS_WindDir_IsbL-0275_RLatLon0.03_PT003H.grib2 2026-04-28 18:05 1.1M
20260428T12Z_MSC_CAPS_WindDir_IsbL-0300_RLatLon0.03_PT003H.grib2 2026-04-28 18:05 1.1M
20260428T12Z_MSC_CAPS_WindDir_IsbL-0350_RLatLon0.03_PT003H.grib2 2026-04-28 18:05 1.1M
20260428T12Z_MSC_CAPS_WindDir_IsbL-0400_RLatLon0.03_PT003H.grib2 2026-04-28 18:05 1.2M
20260428T12Z_MSC_CAPS_WindDir_IsbL-0450_RLatLon0.03_PT003H.grib2 2026-04-28 18:05 1.1M
20260428T12Z_MSC_CAPS_WindDir_IsbL-0500_RLatLon0.03_PT003H.grib2 2026-04-28 18:05 1.2M
20260428T12Z_MSC_CAPS_WindDir_IsbL-0550_RLatLon0.03_PT003H.grib2 2026-04-28 18:05 1.2M
20260428T12Z_MSC_CAPS_WindDir_IsbL-0600_RLatLon0.03_PT003H.grib2 2026-04-28 18:05 1.2M
20260428T12Z_MSC_CAPS_WindDir_IsbL-0650_RLatLon0.03_PT003H.grib2 2026-04-28 18:05 1.3M
20260428T12Z_MSC_CAPS_WindDir_IsbL-0700_RLatLon0.03_PT003H.grib2 2026-04-28 18:05 1.4M
20260428T12Z_MSC_CAPS_WindDir_IsbL-0750_RLatLon0.03_PT003H.grib2 2026-04-28 18:05 1.5M
20260428T12Z_MSC_CAPS_WindDir_IsbL-0800_RLatLon0.03_PT003H.grib2 2026-04-28 18:05 1.6M
20260428T12Z_MSC_CAPS_WindDir_IsbL-0850_RLatLon0.03_PT003H.grib2 2026-04-28 18:05 1.7M
20260428T12Z_MSC_CAPS_WindDir_IsbL-0875_RLatLon0.03_PT003H.grib2 2026-04-28 18:05 1.8M
20260428T12Z_MSC_CAPS_WindDir_IsbL-0900_RLatLon0.03_PT003H.grib2 2026-04-28 18:05 1.9M
20260428T12Z_MSC_CAPS_WindDir_IsbL-0925_RLatLon0.03_PT003H.grib2 2026-04-28 18:05 2.0M
20260428T12Z_MSC_CAPS_WindDir_IsbL-0950_RLatLon0.03_PT003H.grib2 2026-04-28 18:05 2.1M
20260428T12Z_MSC_CAPS_WindDir_IsbL-0970_RLatLon0.03_PT003H.grib2 2026-04-28 18:05 2.2M
20260428T12Z_MSC_CAPS_WindDir_IsbL-0985_RLatLon0.03_PT003H.grib2 2026-04-28 18:05 2.3M
20260428T12Z_MSC_CAPS_WindDir_IsbL-1000_RLatLon0.03_PT003H.grib2 2026-04-28 18:05 2.3M
20260428T12Z_MSC_CAPS_WindDir_IsbL-1015_RLatLon0.03_PT003H.grib2 2026-04-28 18:05 2.4M
20260428T12Z_MSC_CAPS_WindGust-Max_AGL-10m_RLatLon0.03_PT003H.grib2 2026-04-28 18:05 2.5M
20260428T12Z_MSC_CAPS_WindGust-Min_AGL-10m_RLatLon0.03_PT003H.grib2 2026-04-28 18:05 2.4M
20260428T12Z_MSC_CAPS_WindGust_AGL-10m_RLatLon0.03_PT003H.grib2 2026-04-28 18:05 2.5M
20260428T12Z_MSC_CAPS_WindSpeed_AGL-10m_RLatLon0.03_PT003H.grib2 2026-04-28 18:05 2.1M
20260428T12Z_MSC_CAPS_WindSpeed_AGL-120m_RLatLon0.03_PT003H.grib2 2026-04-28 18:05 1.2M
20260428T12Z_MSC_CAPS_WindSpeed_AGL-40m_RLatLon0.03_PT003H.grib2 2026-04-28 18:05 1.2M
20260428T12Z_MSC_CAPS_WindSpeed_AGL-80m_RLatLon0.03_PT003H.grib2 2026-04-28 18:05 1.2M
20260428T12Z_MSC_CAPS_WindSpeed_IsbL-0050_RLatLon0.03_PT003H.grib2 2026-04-28 18:05 1.0M
20260428T12Z_MSC_CAPS_WindSpeed_IsbL-0100_RLatLon0.03_PT003H.grib2 2026-04-28 18:05 966K
20260428T12Z_MSC_CAPS_WindSpeed_IsbL-0150_RLatLon0.03_PT003H.grib2 2026-04-28 18:05 1.1M
20260428T12Z_MSC_CAPS_WindSpeed_IsbL-0175_RLatLon0.03_PT003H.grib2 2026-04-28 18:05 1.0M
20260428T12Z_MSC_CAPS_WindSpeed_IsbL-0200_RLatLon0.03_PT003H.grib2 2026-04-28 18:05 924K
20260428T12Z_MSC_CAPS_WindSpeed_IsbL-0225_RLatLon0.03_PT003H.grib2 2026-04-28 18:05 942K
20260428T12Z_MSC_CAPS_WindSpeed_IsbL-0250_RLatLon0.03_PT003H.grib2 2026-04-28 18:05 962K
20260428T12Z_MSC_CAPS_WindSpeed_IsbL-0275_RLatLon0.03_PT003H.grib2 2026-04-28 18:05 971K
20260428T12Z_MSC_CAPS_WindSpeed_IsbL-0300_RLatLon0.03_PT003H.grib2 2026-04-28 18:05 1.0M
20260428T12Z_MSC_CAPS_WindSpeed_IsbL-0350_RLatLon0.03_PT003H.grib2 2026-04-28 18:05 1.0M
20260428T12Z_MSC_CAPS_WindSpeed_IsbL-0400_RLatLon0.03_PT003H.grib2 2026-04-28 18:05 1.0M
20260428T12Z_MSC_CAPS_WindSpeed_IsbL-0450_RLatLon0.03_PT003H.grib2 2026-04-28 18:05 971K
20260428T12Z_MSC_CAPS_WindSpeed_IsbL-0500_RLatLon0.03_PT003H.grib2 2026-04-28 18:05 1.3M
20260428T12Z_MSC_CAPS_WindSpeed_IsbL-0550_RLatLon0.03_PT003H.grib2 2026-04-28 18:05 1.3M
20260428T12Z_MSC_CAPS_WindSpeed_IsbL-0600_RLatLon0.03_PT003H.grib2 2026-04-28 18:05 1.4M
20260428T12Z_MSC_CAPS_WindSpeed_IsbL-0650_RLatLon0.03_PT003H.grib2 2026-04-28 18:05 1.4M
20260428T12Z_MSC_CAPS_WindSpeed_IsbL-0700_RLatLon0.03_PT003H.grib2 2026-04-28 18:05 1.5M
20260428T12Z_MSC_CAPS_WindSpeed_IsbL-0750_RLatLon0.03_PT003H.grib2 2026-04-28 18:05 1.5M
20260428T12Z_MSC_CAPS_WindSpeed_IsbL-0800_RLatLon0.03_PT003H.grib2 2026-04-28 18:05 1.6M
20260428T12Z_MSC_CAPS_WindSpeed_IsbL-0850_RLatLon0.03_PT003H.grib2 2026-04-28 18:05 1.7M
20260428T12Z_MSC_CAPS_WindSpeed_IsbL-0875_RLatLon0.03_PT003H.grib2 2026-04-28 18:05 1.7M
20260428T12Z_MSC_CAPS_WindSpeed_IsbL-0900_RLatLon0.03_PT003H.grib2 2026-04-28 18:05 1.8M
20260428T12Z_MSC_CAPS_WindSpeed_IsbL-0925_RLatLon0.03_PT003H.grib2 2026-04-28 18:05 1.8M
20260428T12Z_MSC_CAPS_WindSpeed_IsbL-0950_RLatLon0.03_PT003H.grib2 2026-04-28 18:05 1.9M
20260428T12Z_MSC_CAPS_WindSpeed_IsbL-0970_RLatLon0.03_PT003H.grib2 2026-04-28 18:05 2.0M
20260428T12Z_MSC_CAPS_WindSpeed_IsbL-0985_RLatLon0.03_PT003H.grib2 2026-04-28 18:05 2.0M
20260428T12Z_MSC_CAPS_WindSpeed_IsbL-1000_RLatLon0.03_PT003H.grib2 2026-04-28 18:05 2.0M
20260428T12Z_MSC_CAPS_WindSpeed_IsbL-1015_RLatLon0.03_PT003H.grib2 2026-04-28 18:05 2.0M
20260428T12Z_MSC_CAPS_WindU_AGL-10m_RLatLon0.03_PT003H.grib2 2026-04-28 18:05 1.9M
20260428T12Z_MSC_CAPS_WindU_AGL-120m_RLatLon0.03_PT003H.grib2 2026-04-28 18:05 912K
20260428T12Z_MSC_CAPS_WindU_AGL-40m_RLatLon0.03_PT003H.grib2 2026-04-28 18:05 948K
20260428T12Z_MSC_CAPS_WindU_AGL-80m_RLatLon0.03_PT003H.grib2 2026-04-28 18:05 915K
20260428T12Z_MSC_CAPS_WindU_IsbL-0050_RLatLon0.03_PT003H.grib2 2026-04-28 18:05 950K
20260428T12Z_MSC_CAPS_WindU_IsbL-0100_RLatLon0.03_PT003H.grib2 2026-04-28 18:05 965K
20260428T12Z_MSC_CAPS_WindU_IsbL-0150_RLatLon0.03_PT003H.grib2 2026-04-28 18:05 711K
20260428T12Z_MSC_CAPS_WindU_IsbL-0175_RLatLon0.03_PT003H.grib2 2026-04-28 18:05 721K
20260428T12Z_MSC_CAPS_WindU_IsbL-0200_RLatLon0.03_PT003H.grib2 2026-04-28 18:05 863K
20260428T12Z_MSC_CAPS_WindU_IsbL-0225_RLatLon0.03_PT003H.grib2 2026-04-28 18:05 884K
20260428T12Z_MSC_CAPS_WindU_IsbL-0250_RLatLon0.03_PT003H.grib2 2026-04-28 18:05 910K
20260428T12Z_MSC_CAPS_WindU_IsbL-0275_RLatLon0.03_PT003H.grib2 2026-04-28 18:05 709K
20260428T12Z_MSC_CAPS_WindU_IsbL-0300_RLatLon0.03_PT003H.grib2 2026-04-28 18:05 718K
20260428T12Z_MSC_CAPS_WindU_IsbL-0350_RLatLon0.03_PT003H.grib2 2026-04-28 18:05 941K
20260428T12Z_MSC_CAPS_WindU_IsbL-0400_RLatLon0.03_PT003H.grib2 2026-04-28 18:05 947K
20260428T12Z_MSC_CAPS_WindU_IsbL-0450_RLatLon0.03_PT003H.grib2 2026-04-28 18:05 958K
20260428T12Z_MSC_CAPS_WindU_IsbL-0500_RLatLon0.03_PT003H.grib2 2026-04-28 18:05 1.0M
20260428T12Z_MSC_CAPS_WindU_IsbL-0550_RLatLon0.03_PT003H.grib2 2026-04-28 18:05 1.0M
20260428T12Z_MSC_CAPS_WindU_IsbL-0600_RLatLon0.03_PT003H.grib2 2026-04-28 18:05 908K
20260428T12Z_MSC_CAPS_WindU_IsbL-0650_RLatLon0.03_PT003H.grib2 2026-04-28 18:05 934K
20260428T12Z_MSC_CAPS_WindU_IsbL-0700_RLatLon0.03_PT003H.grib2 2026-04-28 18:05 1.0M
20260428T12Z_MSC_CAPS_WindU_IsbL-0750_RLatLon0.03_PT003H.grib2 2026-04-28 18:05 1.0M
20260428T12Z_MSC_CAPS_WindU_IsbL-0800_RLatLon0.03_PT003H.grib2 2026-04-28 18:05 1.1M
20260428T12Z_MSC_CAPS_WindU_IsbL-0850_RLatLon0.03_PT003H.grib2 2026-04-28 18:05 1.1M
20260428T12Z_MSC_CAPS_WindU_IsbL-0875_RLatLon0.03_PT003H.grib2 2026-04-28 18:05 1.2M
20260428T12Z_MSC_CAPS_WindU_IsbL-0900_RLatLon0.03_PT003H.grib2 2026-04-28 18:05 1.2M
20260428T12Z_MSC_CAPS_WindU_IsbL-0925_RLatLon0.03_PT003H.grib2 2026-04-28 18:05 1.3M
20260428T12Z_MSC_CAPS_WindU_IsbL-0950_RLatLon0.03_PT003H.grib2 2026-04-28 18:05 1.3M
20260428T12Z_MSC_CAPS_WindU_IsbL-0970_RLatLon0.03_PT003H.grib2 2026-04-28 18:05 1.4M
20260428T12Z_MSC_CAPS_WindU_IsbL-0985_RLatLon0.03_PT003H.grib2 2026-04-28 18:05 1.4M
20260428T12Z_MSC_CAPS_WindU_IsbL-1000_RLatLon0.03_PT003H.grib2 2026-04-28 18:05 1.8M
20260428T12Z_MSC_CAPS_WindU_IsbL-1015_RLatLon0.03_PT003H.grib2 2026-04-28 18:05 1.8M
20260428T12Z_MSC_CAPS_WindV_AGL-10m_RLatLon0.03_PT003H.grib2 2026-04-28 18:05 2.0M
20260428T12Z_MSC_CAPS_WindV_AGL-120m_RLatLon0.03_PT003H.grib2 2026-04-28 18:05 1.2M
20260428T12Z_MSC_CAPS_WindV_AGL-40m_RLatLon0.03_PT003H.grib2 2026-04-28 18:05 1.2M
20260428T12Z_MSC_CAPS_WindV_AGL-80m_RLatLon0.03_PT003H.grib2 2026-04-28 18:05 1.2M
20260428T12Z_MSC_CAPS_WindV_IsbL-0050_RLatLon0.03_PT003H.grib2 2026-04-28 18:05 953K
20260428T12Z_MSC_CAPS_WindV_IsbL-0100_RLatLon0.03_PT003H.grib2 2026-04-28 18:05 795K
20260428T12Z_MSC_CAPS_WindV_IsbL-0150_RLatLon0.03_PT003H.grib2 2026-04-28 18:05 1.0M
20260428T12Z_MSC_CAPS_WindV_IsbL-0175_RLatLon0.03_PT003H.grib2 2026-04-28 18:05 719K
20260428T12Z_MSC_CAPS_WindV_IsbL-0200_RLatLon0.03_PT003H.grib2 2026-04-28 18:05 858K
20260428T12Z_MSC_CAPS_WindV_IsbL-0225_RLatLon0.03_PT003H.grib2 2026-04-28 18:05 878K
20260428T12Z_MSC_CAPS_WindV_IsbL-0250_RLatLon0.03_PT003H.grib2 2026-04-28 18:05 905K
20260428T12Z_MSC_CAPS_WindV_IsbL-0275_RLatLon0.03_PT003H.grib2 2026-04-28 18:05 914K
20260428T12Z_MSC_CAPS_WindV_IsbL-0300_RLatLon0.03_PT003H.grib2 2026-04-28 18:05 928K
20260428T12Z_MSC_CAPS_WindV_IsbL-0350_RLatLon0.03_PT003H.grib2 2026-04-28 18:05 942K
20260428T12Z_MSC_CAPS_WindV_IsbL-0400_RLatLon0.03_PT003H.grib2 2026-04-28 18:05 947K
20260428T12Z_MSC_CAPS_WindV_IsbL-0450_RLatLon0.03_PT003H.grib2 2026-04-28 18:05 832K
20260428T12Z_MSC_CAPS_WindV_IsbL-0500_RLatLon0.03_PT003H.grib2 2026-04-28 18:05 857K
20260428T12Z_MSC_CAPS_WindV_IsbL-0550_RLatLon0.03_PT003H.grib2 2026-04-28 18:05 883K
20260428T12Z_MSC_CAPS_WindV_IsbL-0600_RLatLon0.03_PT003H.grib2 2026-04-28 18:05 909K
20260428T12Z_MSC_CAPS_WindV_IsbL-0650_RLatLon0.03_PT003H.grib2 2026-04-28 18:05 1.2M
20260428T12Z_MSC_CAPS_WindV_IsbL-0700_RLatLon0.03_PT003H.grib2 2026-04-28 18:05 972K
20260428T12Z_MSC_CAPS_WindV_IsbL-0750_RLatLon0.03_PT003H.grib2 2026-04-28 18:05 1.3M
20260428T12Z_MSC_CAPS_WindV_IsbL-0800_RLatLon0.03_PT003H.grib2 2026-04-28 18:05 1.4M
20260428T12Z_MSC_CAPS_WindV_IsbL-0850_RLatLon0.03_PT003H.grib2 2026-04-28 18:05 1.5M
20260428T12Z_MSC_CAPS_WindV_IsbL-0875_RLatLon0.03_PT003H.grib2 2026-04-28 18:05 1.5M
20260428T12Z_MSC_CAPS_WindV_IsbL-0900_RLatLon0.03_PT003H.grib2 2026-04-28 18:05 1.5M
20260428T12Z_MSC_CAPS_WindV_IsbL-0925_RLatLon0.03_PT003H.grib2 2026-04-28 18:05 1.6M
20260428T12Z_MSC_CAPS_WindV_IsbL-0950_RLatLon0.03_PT003H.grib2 2026-04-28 18:05 1.7M
20260428T12Z_MSC_CAPS_WindV_IsbL-0970_RLatLon0.03_PT003H.grib2 2026-04-28 18:05 1.7M
20260428T12Z_MSC_CAPS_WindV_IsbL-0985_RLatLon0.03_PT003H.grib2 2026-04-28 18:05 1.8M
20260428T12Z_MSC_CAPS_WindV_IsbL-1000_RLatLon0.03_PT003H.grib2 2026-04-28 18:05 1.9M
20260428T12Z_MSC_CAPS_WindV_IsbL-1015_RLatLon0.03_PT003H.grib2 2026-04-28 18:05 2.0M